Bogalusa, LA

7:12 PM CST on February 13, 2016 (GMT -0600)
Carr Memorial

Weather History for KBXA - December, 2013

Change the Weather History Date:

Tuesday, December 31, 2013

  Actual Average Record
Temperature  
Mean Temperature 44 °F -  
Max Temperature 47 °F 61 °F 61 °F (2012)
Min Temperature 40 °F 41 °F 32 °F (2012)
Degree Days  
Heating Degree Days 22    
Moisture  
Dew Point 38 °F    
Average Humidity 79    
Maximum Humidity 87    
Minimum Humidity 66    
Precipitation  
Precipitation 0.00 in - - ()
Sea Level Pressure  
Sea Level Pressure 30.39 in    
Wind  
Wind Speed 5 mph (NNE)    
Max Wind Speed 9 mph    
Max Gust Speed -    
Visibility 10 miles    
Events Thunderstorm    
Averages and records for this station are not official NWS values.
T = Trace of Precipitation, MM = Missing Value Source: NWS Daily Summary

Daily Weather History Graph

Daily Weather History Graph

Search for Another Location

Airport or City:

Trip Planner

Search our weather history database for the weather conditions in past years. The results will help you decide how hot, cold, wet, or windy it might be!

Date:

Astronomy

Dec. 31, 2013 Rise Set
Actual Time 6:57 AM CST 5:08 PM CST
Civil Twilight 6:30 AM CST 5:34 PM CST
Nautical Twilight 6:00 AM CST 6:04 PM CST
Astronomical Twilight 5:30 AM CST 6:34 PM CST
Moon 5:52 AM CST (12/31) 4:41 PM CST (12/31)
Length of Visible Light 11h 04m
Length of Day
10h 11m
Waning Crescent, 1% of the Moon is Illuminated
Dec 31
Waning Crescent
Jan 1
New
Jan 7
First Quarter
Jan 15
Full
Jan 23
Last Quarter

Hourly Weather History & Observations

Time (CST) Temp. Windchill Dew Point Humidity Pressure Visibility Wind Dir Wind Speed Gust Speed Precip Events Conditions
12:15 AM 46.6 °F - 41.0 °F 81% 30.35 in 10.0 mi North 8.1 mph - N/A   Unknown
12:35 AM 46.2 °F 42.2 °F 40.8 °F 81% 30.36 in 10.0 mi North 8.1 mph - N/A   Unknown
12:55 AM 45.5 °F 42.5 °F 40.1 °F 81% 30.35 in 10.0 mi North 5.8 mph - N/A   Unknown
1:15 AM 45.1 °F 42.8 °F 39.7 °F 81% 30.35 in 10.0 mi North 4.6 mph - N/A   Unknown
1:35 AM 44.6 °F 43.1 °F 39.7 °F 83% 30.36 in 10.0 mi North 3.5 mph - N/A   Unknown
1:55 AM 44.2 °F 41.0 °F 39.2 °F 82% 30.35 in 10.0 mi North 5.8 mph - N/A   Unknown
2:15 AM 43.9 °F 39.9 °F 38.5 °F 81% 30.36 in 10.0 mi North 6.9 mph - N/A   Unknown
2:35 AM 43.2 °F 39.0 °F 37.9 °F 82% 30.36 in 10.0 mi North 6.9 mph - N/A   Unknown
2:55 AM 42.8 °F 38.6 °F 37.6 °F 82% 30.36 in 10.0 mi North 6.9 mph - N/A   Unknown
3:15 AM 42.1 °F 37.1 °F 37.4 °F 83% 30.35 in 10.0 mi North 8.1 mph - N/A   Unknown
3:35 AM 41.9 °F 38.2 °F 37.0 °F 83% 30.36 in 10.0 mi North 5.8 mph - N/A   Unknown
3:55 AM 41.5 °F 35.9 °F 36.7 °F 83% 30.37 in 10.0 mi North 9.2 mph - N/A   Unknown
4:15 AM 41.2 °F 38.2 °F 36.1 °F 82% 30.38 in 10.0 mi North 4.6 mph - N/A   Unknown
4:35 AM 41.0 °F 37.1 °F 36.5 °F 84% 30.38 in 10.0 mi North 5.8 mph - N/A   Unknown
4:55 AM 41.0 °F 38.0 °F 36.1 °F 83% 30.38 in 10.0 mi NNE 4.6 mph - N/A   Unknown
5:15 AM 40.6 °F 35.4 °F 36.5 °F 85% 30.37 in 10.0 mi North 8.1 mph - N/A   Unknown
5:35 AM 40.6 °F 36.0 °F 35.8 °F 83% 30.38 in 10.0 mi North 6.9 mph - N/A   Unknown
5:55 AM 40.6 °F 35.4 °F 36.0 °F 83% 30.38 in 10.0 mi NNE 8.1 mph - N/A   Unknown
6:15 AM 40.5 °F 37.3 °F 35.6 °F 83% 30.38 in 10.0 mi NNE 4.6 mph - N/A   Unknown
6:35 AM 40.5 °F 36.5 °F 35.8 °F 83% 30.40 in 10.0 mi North 5.8 mph - N/A   Unknown
6:55 AM 40.5 °F 35.1 °F 36.0 °F 84% 30.41 in 10.0 mi North 8.1 mph - N/A   Unknown
7:15 AM 40.3 °F 37.1 °F 35.8 °F 84% 30.41 in 10.0 mi North 4.6 mph - N/A   Unknown
7:35 AM 40.3 °F 36.3 °F 36.0 °F 85% 30.41 in 10.0 mi NNE 5.8 mph - N/A   Unknown
7:55 AM 40.5 °F 35.1 °F 36.0 °F 84% 30.42 in 10.0 mi NNE 8.1 mph - N/A   Unknown
8:15 AM 40.6 °F 36.0 °F 36.1 °F 84% 30.44 in 7.0 mi NNE 6.9 mph - N/A Thunderstorm Unknown
8:35 AM 41.0 °F 37.1 °F 36.1 °F 83% 30.45 in 7.0 mi NNE 5.8 mph - N/A   Unknown
8:55 AM 41.2 °F 38.2 °F 36.5 °F 83% 30.45 in 7.0 mi NNE 4.6 mph - N/A   Unknown
9:15 AM 41.5 °F 37.8 °F 36.1 °F 81% 30.46 in 10.0 mi NE 5.8 mph - N/A   Unknown
9:35 AM 42.1 °F 39.2 °F 36.3 °F 80% 30.46 in 10.0 mi NE 4.6 mph - N/A   Unknown
9:55 AM 42.3 °F 37.9 °F 36.1 °F 79% 30.45 in 10.0 mi NNE 6.9 mph - N/A   Unknown
10:15 AM 42.8 °F 38.6 °F 36.3 °F 78% 30.44 in 10.0 mi NE 6.9 mph - N/A   Unknown
10:35 AM 43.0 °F 38.2 °F 36.1 °F 77% 30.43 in 10.0 mi NNE 8.1 mph - N/A   Unknown
10:55 AM 43.7 °F 39.1 °F 36.0 °F 74% 30.43 in 10.0 mi NNE 8.1 mph - N/A   Unknown
11:15 AM 43.7 °F 39.7 °F 36.0 °F 74% 30.42 in 10.0 mi NE 6.9 mph - N/A   Unknown
11:35 AM 44.1 °F 41.5 °F 35.8 °F 73% 30.42 in 10.0 mi NNE 4.6 mph - N/A   Unknown
11:55 AM 45.1 °F 42.0 °F 36.5 °F 72% 30.42 in 10.0 mi NE 5.8 mph - N/A   Unknown
12:15 PM 45.1 °F 42.0 °F 36.5 °F 72% 30.40 in 10.0 mi ENE 5.8 mph - N/A   Unknown
12:35 PM 45.3 °F 43.0 °F 36.5 °F 71% 30.39 in 10.0 mi NNE 4.6 mph - N/A   Unknown
12:55 PM 45.9 °F 43.6 °F 36.5 °F 70% 30.39 in 10.0 mi ENE 4.6 mph - N/A   Unknown
1:15 PM 46.4 °F 45.2 °F 37.0 °F 70% 30.37 in 10.0 mi ENE 3.5 mph - N/A   Unknown
1:35 PM 46.6 °F - 37.0 °F 69% 30.37 in 10.0 mi NE 3.5 mph - N/A   Unknown
1:55 PM 46.8 °F - 37.0 °F 69% 30.36 in 10.0 mi NNE 5.8 mph - N/A   Unknown
2:15 PM 47.1 °F - 37.4 °F 69% 30.36 in 10.0 mi NE 3.5 mph - N/A   Unknown
2:35 PM 47.3 °F - 37.6 °F 69% 30.38 in 10.0 mi North 5.8 mph - N/A   Unknown
2:55 PM 47.3 °F - 37.4 °F 68% 30.37 in 10.0 mi NNE 3.5 mph - N/A   Unknown
3:15 PM 47.7 °F - 36.9 °F 66% 30.37 in 10.0 mi NE 3.5 mph - N/A   Unknown
3:35 PM 47.3 °F - 37.6 °F 69% 30.37 in 10.0 mi North 5.8 mph - N/A   Unknown
3:55 PM 47.1 °F - 36.9 °F 68% 30.36 in 10.0 mi NE 5.8 mph - N/A   Unknown
4:15 PM 46.6 °F - 37.4 °F 70% 30.38 in 10.0 mi North 6.9 mph - N/A   Unknown
4:35 PM 46.4 °F 45.2 °F 37.0 °F 70% 30.38 in 10.0 mi NNE 3.5 mph - N/A   Unknown
4:55 PM 46.0 °F - 37.2 °F 71% 30.36 in 10.0 mi Calm Calm - N/A   Unknown
5:15 PM 45.9 °F - 37.4 °F 72% 30.37 in 10.0 mi Calm Calm - N/A   Unknown
5:35 PM 45.5 °F - 38.1 °F 75% 30.38 in 10.0 mi Calm Calm - N/A   Unknown
5:55 PM 45.3 °F - 37.9 °F 75% 30.36 in 10.0 mi Calm Calm - N/A   Unknown
6:15 PM 45.0 °F - 38.3 °F 77% 30.37 in 10.0 mi Calm Calm - N/A   Unknown
6:35 PM 44.8 °F - 38.3 °F 78% 30.36 in 10.0 mi Calm Calm - N/A   Unknown
6:55 PM 44.2 °F - 39.2 °F 82% 30.38 in 10.0 mi Calm Calm - N/A   Unknown
7:15 PM 44.1 °F - 39.2 °F 83% 30.38 in 10.0 mi Calm Calm - N/A   Unknown
7:35 PM 44.1 °F - 39.4 °F 84% 30.38 in 10.0 mi Calm Calm - N/A   Unknown
7:55 PM 44.1 °F - 39.7 °F 85% 30.39 in 10.0 mi Calm Calm - N/A   Unknown
8:15 PM 43.9 °F - 40.3 °F 87% 30.39 in 10.0 mi Calm Calm - N/A   Unknown
8:35 PM 44.2 °F - 40.5 °F 87% 30.38 in 10.0 mi Calm Calm - N/A   Unknown
8:55 PM 44.6 °F - 40.6 °F 86% 30.39 in 10.0 mi Calm Calm - N/A   Unknown
9:15 PM 44.8 °F - 40.1 °F 84% 30.39 in 10.0 mi Calm Calm - N/A   Unknown
9:35 PM 44.6 °F - 40.5 °F 85% 30.38 in 10.0 mi Calm Calm - N/A   Unknown
9:55 PM 44.8 °F - 39.7 °F 82% 30.39 in 10.0 mi Calm Calm - N/A   Unknown
10:15 PM 45.0 °F - 40.1 °F 83% 30.40 in 10.0 mi Calm Calm - N/A   Light Drizzle
10:35 PM 45.5 °F 44.2 °F 40.1 °F 81% 30.38 in 10.0 mi ESE 3.5 mph - N/A   Unknown
10:55 PM 45.5 °F - 39.6 °F 80% 30.38 in 10.0 mi Calm Calm - N/A   Light Drizzle
11:15 PM 45.5 °F - 40.1 °F 81% 30.36 in 10.0 mi Calm Calm - N/A   Drizzle
11:35 PM 45.3 °F - 39.9 °F 81% 30.35 in 10.0 mi Calm Calm - N/A   Light Drizzle